Flag for Gibraltar Weather past 2 weeks in Gibraltar, Gibraltar

Now
57 °F

Passing clouds.


Feels Like: 55 °F
Forecast: 56 / 60 °F
Wind: 12 mph from West

Location: Gibraltar Airport

Current Time: Mar 4, 2015 at 10:06:24 AM

Latest Report: Mar 4, 2015 at 8:50 AM


Visibility: N/A

Pressure: 30.27 "Hg

Humidity: 82%

Dew point: 52 °F

Location of GibraltarLocation

Historic Weather in Gibraltar — Graph

°F

Gibraltar temperature yesterday

Maximum temperature yesterday: 66 °F (at 1:50 PM)
Minimum temperature yesterday: 57 °F (at 3:50 AM)
Average temperature yesterday: 61 °F

Past Weeks' High & Low Weather Summary

 TemperatureHumidityPressure
High68 °F (Mar 2, 2:50 PM)94% (Feb 21, 12:50 AM)30.48 "Hg (Feb 21, 12:50 AM)
Low50 °F (Feb 20, 6:50 AM)34% (Feb 25, 12:50 PM)29.86 "Hg (Feb 21, 3:50 PM)
Average58 °F73%30.22 "Hg
* Reported Feb 17 8:50 AM — Mar 4 8:50 AM, Gibraltar, Weather by CustomWeather, © 2015

Note: Actual official high and low records may vary slightly from our data, if they occured in-between our weather recording intervals... More about our weather records

Advertising

Gibraltar weather history for previous 24 hours

 ConditionsComfort  
Time TempWeatherWind HumidityBarometerVisibility
8:50 AM
Wed, Mar 4
57 °FPassing clouds.12 mph82%30.27 "HgN/A
7:50 AM57 °FScattered clouds.12 mph82%30.24 "HgN/A
6:50 AM57 °FPassing clouds.14 mph88%30.24 "HgN/A
5:50 AM57 °FClear.21 mph88%30.24 "HgN/A
4:50 AM57 °FClear.17 mph88%30.24 "HgN/A
3:50 AM57 °FClear.18 mph88%30.24 "HgN/A
2:50 AM57 °FClear.21 mph88%30.27 "HgN/A
1:50 AM57 °FClear.20 mph88%30.27 "HgN/A
12:50 AM59 °FClear.21 mph82%30.27 "HgN/A
11:50 PM
Tue, Mar 3
59 °FClear.20 mph82%30.27 "HgN/A
10:50 PM61 °FPassing clouds.13 mph72%30.27 "HgN/A
9:50 PM61 °FPassing clouds.14 mph68%30.27 "HgN/A
8:50 PM61 °FPassing clouds.13 mph77%30.27 "HgN/A
7:50 PM61 °FPassing clouds.17 mph83%30.24 "HgN/A
6:50 PM63 °FPartly sunny.16 mph77%30.24 "HgN/A
5:50 PM66 °FPartly sunny.16 mph68%30.21 "HgN/A
4:50 PM66 °FPartly sunny.14 mph68%30.21 "HgN/A
3:50 PM66 °FScattered clouds.14 mph68%30.21 "HgN/A
2:50 PM66 °FScattered clouds.13 mph68%30.24 "HgN/A
1:50 PM66 °FPassing clouds.13 mph68%30.24 "HgN/A
12:50 PM64 °FScattered clouds.16 mph73%30.27 "HgN/A
11:50 AM64 °FScattered clouds.9 mph73%30.27 "HgN/A
10:50 AM63 °FScattered clouds.10 mph77%30.27 "HgN/A
Weather by CustomWeather, © 2015

See weather overviewHow to use our weather pages